Location: Unspecified
(0.0000°N, 0.0000°E)
Time: 13:47:33
(UTC+00:00)

Hubble Space Telescope - Pass Details

Date: 04 April 2020
Orbit: 536 x 540 km, 28.5° (Epoch: 01 April)

Event Time Altitude Azimuth Distance (km) Brightness Sun altitude
Exits shadow 04:28:45 36° 359° (N) 860 1.8 -23.4°
Maximum altitude 04:29:35 40° 30° (NNE) 789 1.8 -23.2°
Drops below altitude 10° 04:33:29 10° 101° (E) 1,785 4.4 -22.2°
Sets 04:35:50 0° 108° (ESE) 2,677 5.5 -21.7°
